RH
44 37 34 35 45 42 45 56 51 45 50 55 66 73 76 75 70 74 77 75 82 85 78 80 79 84 86 85 88 88 92 92 98 99 99 99 99 99 99 97 94 86 76 77
38 37 30 36 38 40 48 55 53 44 49 53 73 69 77 74 67 68 76 74 70 73 72 75 83 86 90 91 90 89 91 93 96 98 98 98 99 99 99 98 98 96 92 86
45 34 33 36 36 37 48 56 50 48 53 67 74 70 84 74 64 55 62 64 62 66 70 64 73 89 91 94 94 92 92 92 93 96 98 98 96 96 95 97 98 98 96 96
41 30 33 33 30 40 43 42 46 50 62 68 67 62 65 75 73 59 59 65 69 69 64 64 69 88 93 95 94 94 90 91 91 92 94 94 96 97 98 98 97 97 94 94
32 36 32 33 27 36 36 48 49 54 62 73 70 73 61 70 73 64 58 56 59 62 59 64 69 77 88 95 99 94 93 90 89 92 92 95 96 97 95 95 95 97 97 95
38 37 39 29 30 36 40 54 60 74 68 81 62 74 59 68 66 64 57 54 53 53 56 52 48 54 72 76 86 84 98 90 88 88 87 92 94 94 94 95 96 95 94 93
40 42 34 34 32 39 49 60 76 72 87 71 58 68 57 73 64 55 53 54 54 56 56 58 53 52 51 60 65 63 68 80 80 89 88 87 90 89 90 92 94 92 93 92
52 58 38 29 36 37 50 56 70 56 69 66 53 61 56 67 56 52 50 53 52 56 56 58 58 56 54 55 58 55 60 61 59 72 78 76 77 80 84 85 84 83 86 85
44 41 36 34 34 39 43 53 48 48 72 73 59 51 67 60 58 54 53 52 55 56 57 58 57 57 57 56 57 58 59 58 59 56 55 57 60 62 69 69 72 77 73 60
40 42 40 37 37 41 48 40 54 65 64 67 61 55 74 74 65 58 56 54 55 55 56 57 58 58 57 56 56 56 56 55 55 52 51 52 54 59 64 65 68 67 69 67
51 44 41 39 41 41 42 53 48 51 56 65 67 55 71 74 65 62 54 50 52 53 56 58 59 58 59 59 58 55 56 56 60 56 51 54 56 56 54 58 64 67 68 66
45 47 51 37 39 38 36 40 41 57 66 58 57 63 74 76 63 56 54 48 50 49 53 58 59 60 59 59 59 58 56 54 58 60 55 54 54 55 58 59 58 63 62 65
39 47 56 53 55 48 43 38 42 47 66 85 81 74 72 68 61 56 52 48 49 52 53 55 56 59 60 60 57 55 55 56 54 60 52 52 54 56 59 63 60 61 64 66
40 47 43 63 56 49 52 49 48 49 90 66 68 58 57 70 66 54 48 48 49 50 52 56 56 59 61 59 55 53 50 52 52 59 51 51 53 54 57 61 64 65 64 65
43 53 56 46 46 48 44 45 46 56 46 58 48 58 46 53 64 58 46 45 48 52 54 54 56 60 64 66 58 52 52 52 54 55 60 56 55 54 54 55 58 62 64 63
53 58 65 63 53 57 66 60 59 58 55 56 54 58 49 65 65 57 48 46 49 50 49 52 57 61 62 70 58 48 52 55 57 57 60 58 58 59 62 62 61 64 66 66
50 60 61 75 82 82 82 67 63 70 75 72 80 69 72 73 65 59 53 48 49 52 54 56 58 61 60 64 55 53 54 55 57 59 61 60 61 65 65 67 70 70 74 73
59 60 63 75 84 95 62 73 70 71 70 73 67 65 69 68 66 58 57 57 58 55 55 58 60 56 54 57 52 54 55 58 60 61 62 61 59 60 63 64 66 76 79 83
71 66 79 85 96 75 70 79 82 80 69 69 66 68 67 66 66 68 58 60 63 62 64 65 57 51 51 53 58 59 60 62 62 61 64 62 63 65 64 63 69 72 77 80
72 63 89 96 96 93 72 76 69 78 78 68 60 66 67 64 76 69 62 62 64 59 53 52 48 49 53 62 64 63 64 67 65 63 64 63 63 64 68 68 71 70 80 74
92 92 94 85 96 89 79 70 66 79 70 67 63 64 64 68 70 68 60 54 51 48 48 46 50 55 60 66 66 67 69 68 62 58 60 61 62 64 66 67 73 74 84 80
75 95 95 93 97 91 64 70 69 73 68 65 64 66 66 69 64 59 52 49 47 49 47 51 57 59 66 66 68 67 71 61 62 64 63 64 67 64 54 64 70 78 89 93
84 72 89 88 75 79 66 71 63 58 62 65 65 66 61 61 55 52 53 51 49 51 50 53 60 65 64 64 68 69 63 65 68 71 70 73 68 65 63 69 75 75 90 94
81 66 76 95 92 79 80 90 85 64 69 66 68 79 78 86 91 92 79 56 53 54 55 59 67 69 70 69 60 71 70 66 74 75 76 78 82 80 79 72 74 82 92 92
80 72 84 91 93 81 90 91 95 96 95 94 94 93 92 92 92 90 72 54 57 56 61 65 67 66 67 71 75 76 62 74 77 78 82 84 79 85 86 82 86 86 84 84
80 84 91 83 92 96 94 96 96 95 94 94 92 93 92 90 88 70 58 60 62 72 67 66 69 68 72 76 76 73 73 73 84 87 79 84 82 89 88 91 90 80 77 75
Wind_Speed
4 7 2 3 1 1 1 2 4 5 2 1 2 3 3 4 4 6 9 11 14 15 14 16 17 17 18 20 22 21 19 16 2 3 2 2 2 1 3 5 5 3 5 8
6 2 2 1 2 2 0 2 4 4 1 1 4 7 5 1 2 4 7 9 12 15 17 17 19 19 20 17 21 21 20 16 10 1 1 3 2 4 3 3 6 6 6 3
4 2 0 1 1 4 3 3 3 4 2 1 2 5 4 3 2 5 6 6 9 11 14 16 18 18 17 19 20 19 19 17 14 12 4 6 4 4 7 7 7 10 10 9
1 2 1 1 2 3 3 4 3 3 2 4 1 6 5 5 3 3 6 7 7 10 11 12 15 19 19 17 17 18 19 19 16 17 10 13 7 9 8 6 9 11 13 13
2 2 3 2 2 3 7 1 4 2 3 2 2 1 2 4 4 2 4 5 7 7 9 12 13 13 14 16 15 17 20 23 20 20 17 11 12 8 7 8 14 14 11 13
2 3 1 2 3 2 5 2 3 3 1 1 2 4 4 5 5 3 1 5 6 7 8 10 11 11 12 12 15 16 19 19 20 19 20 18 17 13 11 13 10 8 9 9
7 2 3 1 5 3 8 5 4 5 3 5 3 2 6 3 2 4 5 4 4 5 6 8 12 12 12 15 14 13 13 17 16 19 21 20 18 17 18 13 10 11 9 9
4 8 3 3 1 2 3 2 4 5 3 5 1 6 2 3 5 5 5 5 4 5 6 8 8 9 11 12 14 13 13 14 15 16 16 14 14 9 10 11 9 7 7 6
4 6 4 0 1 3 2 1 2 2 2 2 4 3 2 3 4 5 6 5 5 4 4 6 7 7 8 9 10 11 13 14 14 13 10 13 12 13 12 12 9 7 7 8
2 5 2 4 1 1 2 2 2 2 5 6 5 5 5 7 10 8 8 6 6 4 4 4 5 6 5 6 6 9 9 10 10 10 11 10 11 11 10 9 10 10 10 12
2 3 6 3 3 3 1 1 1 1 3 3 5 7 5 6 10 13 10 7 6 5 4 4 4 4 5 5 6 6 7 8 9 9 9 10 10 11 10 8 9 9 10 11
1 4 5 9 2 2 2 3 5 4 5 4 2 9 2 4 5 11 10 8 6 5 4 4 4 4 4 5 6 7 7 7 7 6 6 7 7 7 8 9 10 9 9 8
2 2 5 9 3 2 3 5 5 2 2 7 4 8 1 2 3 7 12 9 7 7 5 3 3 3 3 3 3 4 4 5 4 4 5 7 9 8 8 7 7 7 7 7
3 3 8 8 6 2 7 7 6 7 5 6 17 19 12 5 7 8 9 12 10 7 7 4 2 3 3 4 4 5 5 4 5 5 7 7 6 5 5 6 6 7 7 6
1 5 5 10 9 7 17 19 11 13 18 11 24 14 18 9 14 16 15 12 12 9 6 5 4 2 3 5 6 7 7 8 7 7 8 9 10 11 12 12 11 10 9 8
0 5 2 9 12 9 13 18 14 15 16 16 21 25 14 5 4 9 15 16 13 10 8 5 4 3 4 4 4 5 5 6 6 6 6 6 7 6 6 7 9 9 10 10
3 2 3 7 3 8 11 12 9 4 5 6 7 7 2 1 3 6 9 11 11 9 8 6 4 3 2 2 3 4 5 5 5 5 5 5 5 5 6 6 6 5 6 7
3 2 2 7 6 3 5 1 3 6 8 8 5 1 1 1 4 6 3 6 8 7 5 5 4 3 2 1 2 3 3 4 5 5 6 6 7 7 6 5 6 5 5 5
7 5 3 4 3 11 7 2 5 5 6 6 6 4 3 3 4 4 3 4 4 5 5 4 3 2 2 2 2 3 5 5 5 4 4 5 5 7 7 9 8 6 6 7
3 4 3 0 5 7 2 3 2 2 7 6 6 8 8 6 3 3 6 6 7 6 5 5 4 2 3 3 2 3 4 5 5 5 5 5 5 6 6 7 7 5 6 9
3 2 12 11 7 10 1 4 2 2 6 2 4 5 9 5 1 5 9 7 5 5 5 4 3 2 1 3 4 5 5 5 5 6 7 6 6 7 7 6 5 6 8 8
8 7 6 4 6 13 7 3 6 1 2 2 3 3 6 8 8 8 8 8 6 5 4 3 2 1 2 4 3 5 5 5 5 6 7 7 6 6 8 8 8 7 6 7
4 9 6 12 9 1 5 1 2 0 2 2 4 3 9 11 10 8 7 5 4 4 2 2 2 3 4 5 3 5 5 6 6 6 7 7 7 7 8 8 8 8 5 6
4 4 5 2 3 5 6 2 1 1 4 6 7 8 7 9 8 7 5 3 2 2 2 2 3 4 5 5 5 5 7 6 6 8 7 6 6 8 4 6 7 7 6 6
3 7 5 8 2 2 7 7 6 7 8 9 8 7 8 8 6 5 4 2 2 2 2 3 4 5 5 5 5 6 7 6 7 7 7 7 7 6 7 7 6 7 8 10
7 8 7 11 3 1 2 7 8 8 8 7 10 9 8 7 6 4 3 2 1 2 3 4 4 5 7 6 7 7 6 6 7 8 7 6 7 6 6 6 7 14 19 20
Wind_Direction
9 66 352 281 190 204 282 238 259 261 178 120 243 199 239 332 0 358 357 3 2 3 349 356 357 3 4 8 0 356 355 338 18 81 128 118 172 170 160 169 127 132 176 154
23 99 244 229 50 22 88 265 283 287 101 255 191 247 215 340 12 31 7 360 1 355 360 2 359 6 9 3 5 357 357 347 0 41 118 104 122 58 61 83 78 97 88 83
144 233 266 174 353 357 279 203 240 228 300 141 151 268 199 202 127 31 22 1 12 3 360 2 6 8 5 12 10 358 1 354 7 355 105 96 86 70 61 43 61 40 49 54
244 330 352 335 280 143 297 226 244 265 59 249 271 291 227 186 205 35 15 5 356 356 13 12 10 9 10 6 7 3 4 11 15 20 33 73 75 74 65 54 67 59 51 43
299 347 348 327 277 179 242 302 256 247 202 21 217 8 261 145 221 289 18 5 10 358 8 15 15 14 9 7 11 9 13 17 17 27 32 43 48 52 43 52 52 52 46 44
292 290 238 270 303 225 330 352 32 38 89 326 214 155 259 194 190 162 131 31 11 5 10 19 19 18 17 19 19 19 21 16 18 29 31 39 45 44 48 38 44 33 34 24
335 321 306 339 331 33 30 33 338 354 2 236 156 148 262 165 157 157 156 98 37 8 15 21 20 19 16 17 17 22 26 33 24 32 33 28 34 35 42 37 37 34 26 18
28 339 0 357 31 306 8 94 129 300 301 291 140 237 278 139 119 114 121 124 81 31 22 22 19 19 19 17 9 21 24 30 33 37 36 36 36 42 44 40 40 46 42 21
19 281 308 120 29 110 337 29 194 245 252 308 249 294 129 132 165 169 168 152 132 99 49 33 17 17 17 18 10 9 21 27 30 30 38 39 32 42 38 31 37 30 36 30
215 297 267 291 349 88 175 193 355 10 318 299 293 275 256 220 216 205 197 185 158 140 105 67 35 18 16 21 15 18 19 25 28 34 32 35 35 37 39 32 29 26 19 19
144 140 285 336 196 192 341 301 116 166 174 257 303 266 192 214 199 199 197 179 167 155 135 104 74 48 21 14 27 36 29 24 24 26 31 36 27 27 25 25 19 16 18 16
257 162 273 242 247 279 203 229 157 131 286 254 222 265 31 296 246 169 164 162 158 156 147 126 96 64 38 33 24 16 17 26 15 17 28 32 32 26 26 24 18 15 21 8
187 283 319 329 6 16 226 212 200 99 109 201 240 257 78 37 131 152 154 159 161 156 154 137 89 74 66 49 44 36 23 17 20 41 35 23 19 19 22 19 16 11 8 357
185 212 197 228 233 182 254 242 210 196 211 244 236 269 262 228 230 177 176 160 160 173 163 151 110 50 23 27 27 25 25 24 16 20 26 26 25 25 16 6 4 5 2 3
169 247 211 264 267 255 264 262 244 221 247 241 276 260 267 230 209 203 177 159 155 170 165 156 149 86 36 22 14 13 12 10 9 13 14 6 358 358 358 360 358 357 358 353
176 275 230 276 248 266 271 264 248 241 251 250 261 268 290 307 146 150 169 167 167 172 167 151 123 85 47 33 19 10 5 359 0 2 359 350 349 345 342 338 336 337 340 340
244 268 324 269 341 302 279 267 212 201 188 182 220 245 357 323 266 165 158 161 159 156 153 152 135 102 55 17 15 354 340 340 356 360 353 342 329 320 318 314 312 306 302 308
223 199 257 281 336 280 258 191 179 226 253 226 262 256 16 25 55 61 95 141 138 132 127 123 131 122 100 73 11 332 340 357 357 345 336 330 334 328 323 319 317 306 302 294
209 206 261 262 238 290 271 183 165 179 282 200 181 149 119 115 79 46 65 68 113 120 125 132 126 107 69 20 343 348 349 348 345 330 315 307 310 310 320 323 319 311 309 313
116 219 201 212 257 255 274 176 186 159 280 167 162 172 162 165 168 198 140 115 111 111 118 122 116 96 44 343 340 346 330 328 320 313 301 291 295 296 298 292 296 304 297 304
123 151 220 233 264 282 290 161 166 168 251 152 173 168 156 182 336 114 115 97 105 112 111 104 96 99 322 331 349 326 317 309 302 315 310 305 305 306 291 298 300 301 303 306
186 186 199 199 223 266 149 88 200 202 55 105 80 119 116 113 114 110 113 117 116 109 92 84 97 4 330 337 334 305 297 291 303 299 301 298 293 296 308 303 300 294 300 298
241 203 193 196 220 106 213 358 14 25 140 126 119 117 133 127 128 118 103 99 97 94 69 35 20 344 330 326 307 300 296 304 298 292 291 287 292 294 300 298 301 303 297 295
255 181 241 5 212 211 202 146 144 10 108 98 98 99 106 119 118 117 134 129 107 56 8 12 351 320 303 302 306 286 294 302 297 297 297 294 291 293 298 297 293 295 292 292
182 154 204 255 236 269 231 206 148 123 112 101 87 87 102 110 105 112 119 100 47 345 351 346 318 301 291 292 284 281 304 300 296 295 293 292 290 287 287 282 280 277 277 277
182 216 218 266 65 20 21 130 131 124 116 110 112 99 78 100 112 125 107 76 6 346 332 316 304 304 300 302 301 299 290 284 287 291 293 291 298 292 283 286 289 283 290 295